When you browse on this site, cookies collect data to enhance your experience and personalize the content and advertising you see.
Visit our Privacy Policy to learn more. By continuing to use the site, you agree to this use of cookies and data.
  • In United Kingdom
  • List of Countries
  • For 7 days
  • Water Temperature
  • Satellite Maps
  • Weather Map
  • Weather Widgets
  • user-avatar
    Login

    Hourly Weather Siguiri

    Today, 24 July, Wednesday

    Time Temperature Precipitation Wind Pressure Humidity
    00:00 +26°C° 0 mm 2 mps 716 mmHg 74%
    01:00 +25°C° 0 mm 1 mps 716 mmHg 74%
    02:00 +25°C° 0 mm 1 mps 715 mmHg 76%
    03:00 +25°C° 0 mm 2 mps 715 mmHg 77%
    04:00 +24°C° 0 mm 2 mps 715 mmHg 78%
    05:00 +24°C° 0 mm 2 mps 715 mmHg 79%
    06:00 +24°C° 0 mm 2 mps 715 mmHg 80%
    07:00 +24°C° 0 mm 2 mps 716 mmHg 81%
    08:00 +26°C° 0 mm 3 mps 716 mmHg 74%
    09:00 +28°C° 0 mm 3 mps 716 mmHg 68%
    10:00 +30°C° 0 mm 3 mps 716 mmHg 61%
    11:00 +32°C° 0 mm 2 mps 716 mmHg 56%
    12:00 +33°C° 0 mm 1 mps 716 mmHg 51%
    13:00 +34°C° 0 mm 1 mps 716 mmHg 47%
    14:00 +34°C° 0.4 mm 1 mps 715 mmHg 48%
    15:00 +34°C° 0.4 mm 1 mps 715 mmHg 49%
    16:00 +35°C° 0.4 mm 2 mps 714 mmHg 50%
    17:00 +32°C° 0.1 mm 1 mps 714 mmHg 53%
    18:00 +31°C° 0.1 mm 1 mps 714 mmHg 57%
    19:00 +28°C° 0.1 mm 0 mps 714 mmHg 61%
    20:00 +29°C° 0.1 mm 1 mps 714 mmHg 64%
    21:00 +28°C° 0.1 mm 1 mps 714 mmHg 68%
    22:00 +27°C° 0.1 mm 1 mps 715 mmHg 71%
    23:00 +27°C° 0 mm 2 mps 715 mmHg 73%

    Tomorrow, 25 July, Thursday

    Time Temperature Precipitation Wind Pressure Humidity
    00:00 +27°C° 0 mm 2 mps 715 mmHg 75%
    01:00 +26°C° 0 mm 2 mps 715 mmHg 77%
    02:00 +26°C° 0 mm 2 mps 715 mmHg 79%
    03:00 +25°C° 0 mm 3 mps 714 mmHg 81%
    04:00 +25°C° 0 mm 3 mps 714 mmHg 82%
    05:00 +25°C° 0 mm 3 mps 714 mmHg 83%
    06:00 +25°C° 0 mm 3 mps 715 mmHg 83%
    07:00 +25°C° 0 mm 3 mps 715 mmHg 84%
    08:00 +27°C° 0 mm 3 mps 715 mmHg 78%
    09:00 +28°C° 0 mm 3 mps 716 mmHg 71%
    10:00 +30°C° 0 mm 3 mps 716 mmHg 65%
    11:00 +33°C° 0.1 mm 3 mps 716 mmHg 59%
    12:00 +34°C° 0.1 mm 3 mps 715 mmHg 54%
    13:00 +36°C° 0.1 mm 2 mps 715 mmHg 48%
    14:00 +36°C° 0.1 mm 2 mps 714 mmHg 47%
    15:00 +35°C° 0.1 mm 1 mps 714 mmHg 46%
    16:00 +35°C° 0.1 mm 1 mps 713 mmHg 45%
    17:00 +35°C° 0.1 mm 2 mps 713 mmHg 50%
    18:00 +32°C° 0.1 mm 2 mps 713 mmHg 56%
    19:00 +31°C° 0.1 mm 2 mps 714 mmHg 61%
    20:00 +30°C° 0.1 mm 3 mps 714 mmHg 66%
    21:00 +28°C° 0.1 mm 3 mps 714 mmHg 72%
    22:00 +27°C° 0.1 mm 4 mps 715 mmHg 77%
    23:00 +26°C° 0.7 mm 3 mps 715 mmHg 80%

    Day after tomorrow, 26 July, Friday

    Time Temperature Precipitation Wind Pressure Humidity
    00:00 +26°C° 0.7 mm 3 mps 715 mmHg 84%
    01:00 +25°C° 0.7 mm 2 mps 715 mmHg 87%
    02:00 +25°C° 1.4 mm 2 mps 715 mmHg 88%
    03:00 +25°C° 1.4 mm 2 mps 715 mmHg 89%
    04:00 +25°C° 1.4 mm 2 mps 715 mmHg 90%
    05:00 +25°C° 1.4 mm 3 mps 715 mmHg 89%
    06:00 +25°C° 1.4 mm 4 mps 715 mmHg 88%
    07:00 +25°C° 1.4 mm 5 mps 715 mmHg 87%
    08:00 +26°C° 0 mm 6 mps 716 mmHg 82%
    09:00 +27°C° 0 mm 6 mps 716 mmHg 78%
    10:00 +28°C° 0 mm 6 mps 716 mmHg 73%
    11:00 +30°C° 0 mm 5 mps 716 mmHg 66%
    12:00 +32°C° 0 mm 4 mps 715 mmHg 59%
    13:00 +34°C° 0 mm 3 mps 715 mmHg 52%
    14:00 +34°C° 0 mm 3 mps 715 mmHg 52%
    15:00 +34°C° 0 mm 3 mps 714 mmHg 52%
    16:00 +34°C° 0 mm 3 mps 714 mmHg 52%
    17:00 +31°C° 0.2 mm 3 mps 714 mmHg 58%
    18:00 +30°C° 0.2 mm 3 mps 714 mmHg 64%
    19:00 +28°C° 0.2 mm 2 mps 714 mmHg 70%
    20:00 +28°C° 0.1 mm 3 mps 714 mmHg 75%
    21:00 +27°C° 0.1 mm 3 mps 715 mmHg 79%
    22:00 +26°C° 0.1 mm 3 mps 715 mmHg 83%
    23:00 +26°C° 0.3 mm 3 mps 715 mmHg 84%

    27 July, Saturday

    Time Temperature Precipitation Wind Pressure Humidity
    00:00 +25°C° 0.3 mm 4 mps 715 mmHg 86%
    01:00 +25°C° 0.3 mm 4 mps 715 mmHg 87%
    02:00 +25°C° 0.3 mm 4 mps 715 mmHg 88%
    03:00 +25°C° 0.3 mm 4 mps 715 mmHg 89%
    04:00 +23°C° 0.3 mm 4 mps 714 mmHg 89%
    05:00 +23°C° 0 mm 5 mps 715 mmHg 89%
    06:00 +23°C° 0 mm 6 mps 715 mmHg 89%
    07:00 +23°C° 0 mm 7 mps 715 mmHg 88%
    08:00 +26°C° 0 mm 6 mps 715 mmHg 83%
    09:00 +27°C° 0 mm 6 mps 716 mmHg 78%
    10:00 +29°C° 0 mm 6 mps 716 mmHg 72%
    11:00 +30°C° 0.1 mm 5 mps 716 mmHg 68%
    12:00 +32°C° 0.1 mm 4 mps 716 mmHg 64%
    13:00 +33°C° 0.1 mm 4 mps 715 mmHg 59%
    14:00 +33°C° 0.7 mm 4 mps 715 mmHg 62%
    15:00 +32°C° 0.7 mm 4 mps 714 mmHg 64%
    16:00 +32°C° 0.7 mm 4 mps 714 mmHg 66%
    17:00 +30°C° 1.4 mm 3 mps 714 mmHg 71%
    18:00 +29°C° 1.4 mm 3 mps 714 mmHg 75%
    19:00 +27°C° 1.4 mm 2 mps 714 mmHg 80%
    20:00 +27°C° 1.5 mm 2 mps 715 mmHg 82%
    21:00 +26°C° 1.5 mm 3 mps 715 mmHg 84%
    22:00 +26°C° 1.5 mm 3 mps 716 mmHg 85%
    23:00 +25°C° 0.1 mm 2 mps 716 mmHg 85%

    28 July, Sunday

    Time Temperature Precipitation Wind Pressure Humidity
    00:00 +25°C° 0.1 mm 2 mps 715 mmHg 85%
    01:00 +25°C° 0.1 mm 2 mps 715 mmHg 86%
    02:00 +24°C° 0 mm 2 mps 715 mmHg 85%
    03:00 +24°C° 0 mm 2 mps 714 mmHg 84%
    04:00 +24°C° 0 mm 2 mps 714 mmHg 84%
    05:00 +24°C° 0 mm 3 mps 714 mmHg 84%
    06:00 +24°C° 0 mm 3 mps 715 mmHg 84%
    07:00 +23°C° 0 mm 4 mps 715 mmHg 85%
    08:00 +25°C° 0.1 mm 4 mps 715 mmHg 84%
    09:00 +25°C° 0.1 mm 3 mps 716 mmHg 83%
    10:00 +26°C° 0.1 mm 3 mps 717 mmHg 82%
    11:00 +26°C° 0.9 mm 4 mps 716 mmHg 80%
    12:00 +27°C° 0.9 mm 4 mps 716 mmHg 79%
    13:00 +27°C° 0.9 mm 4 mps 715 mmHg 78%
    14:00 +27°C° 0.5 mm 4 mps 715 mmHg 76%
    15:00 +28°C° 0.5 mm 4 mps 715 mmHg 74%
    16:00 +28°C° 0.5 mm 4 mps 715 mmHg 72%
    17:00 +27°C° 0 mm 4 mps 715 mmHg 76%
    18:00 +26°C° 0 mm 4 mps 715 mmHg 79%
    19:00 +25°C° 0 mm 3 mps 715 mmHg 83%
    20:00 +25°C° 0 mm 4 mps 715 mmHg 84%
    21:00 +23°C° 0 mm 4 mps 716 mmHg 85%
    22:00 +23°C° 0 mm 4 mps 717 mmHg 85%
    23:00 +23°C° 0 mm 4 mps 716 mmHg 86%

    29 July, Monday

    Time Temperature Precipitation Wind Pressure Humidity
    00:00 +22°C° 0 mm 5 mps 716 mmHg 86%
    01:00 +22°C° 0 mm 5 mps 716 mmHg 86%
    02:00 +22°C° 0 mm 5 mps 716 mmHg 85%
    03:00 +22°C° 0 mm 6 mps 715 mmHg 83%
    04:00 +22°C° 0 mm 6 mps 715 mmHg 82%
    05:00 +22°C° 0 mm 5 mps 716 mmHg 83%
    06:00 +22°C° 0 mm 5 mps 716 mmHg 84%
    07:00 +22°C° 0 mm 4 mps 716 mmHg 84%
    08:00 +25°C° 0 mm 4 mps 717 mmHg 79%
    09:00 +26°C° 0 mm 4 mps 717 mmHg 73%
    10:00 +28°C° 0 mm 4 mps 718 mmHg 68%
    11:00 +29°C° 0 mm 5 mps 717 mmHg 65%
    12:00 +30°C° 0 mm 5 mps 717 mmHg 63%
    13:00 +32°C° 0 mm 5 mps 717 mmHg 60%
    14:00 +32°C° 0 mm 5 mps 716 mmHg 61%
    15:00 +30°C° 0 mm 4 mps 715 mmHg 62%
    16:00 +30°C° 0 mm 4 mps 715 mmHg 62%
    17:00 +29°C° 0.1 mm 3 mps 715 mmHg 67%
    18:00 +28°C° 0.1 mm 3 mps 715 mmHg 72%
    19:00 +27°C° 0.1 mm 2 mps 715 mmHg 76%
    20:00 +26°C° 0 mm 2 mps 715 mmHg 78%
    21:00 +26°C° 0 mm 2 mps 716 mmHg 80%
    22:00 +25°C° 0 mm 2 mps 716 mmHg 82%
    23:00 +25°C° 0 mm 3 mps 716 mmHg 83%
    Show more